Regional Weather Roundup
Issued by NWS Upton, NY

Current Version | Previous Version | Text Only | Print | Product List | Glossary Off
Versions: 1 2 3 4 5 6 7 8 9 10 11 12 13 14 15 16 17 18 19 20 21 22 23 24 25 26 27 28 29 30 31 32 33 34 35 36 37 38 39 40 41 42 43 44 45 46 47 48 49 50
000 ASUS41 KOKX 242318 RWROKX REGIONAL WEATHER ROUNDUP NATIONAL WEATHER SERVICE NEW YORK NY 700 PM EDT SUN MAY 24 2015 NOTE: "FAIR" INDICATES FEW OR NO CLOUDS BELOW 12,000 FEET WITH NO SIGNIFICANT WEATHER AND/OR OBSTRUCTIONS TO VISIBILITY. NYZ071-072-176-178-NJZ106-104-250000- NEW YORK CITY METRO AREA CITY SKY/WX TMP DP RH WIND PRES REMARKS CENTRAL PARK PTSUNNY 74 50 42 CALM 30.25F LAGUARDIA APRT CLOUDY 72 50 45 S12 30.22F KENNEDY INTL CLOUDY 66 50 56 S20 30.25S NEWARK/LIBERTY PTSUNNY 81 36 19 SW8 30.22S BRNX BOT. GARD N/A 70 52 52 S7 30.25F TETERBORO PTSUNNY 77 46 33 SE10 30.21S $$ NYZ177-179-078>081-250000- LONG ISLAND NEW YORK CITY SKY/WX TMP DP RH WIND PRES REMARKS FARMINGDALE CLOUDY 64 49 57 SW12 30.27R ISLIP CLOUDY 63 47 55 SW15G23 30.26R SHIRLEY CLOUDY 63 46 54 SW10 30.28R WESTHAMPTON PTSUNNY 62 44 51 SW14G22 30.28F MONTAUK POINT N/A 61 46 57 SW10G21 30.28R $$ NYZ052-065-067-250000- HUDSON VALLEY CITY SKY/WX TMP DP RH WIND PRES REMARKS WHITE PLAINS CLOUDY 69 51 52 S10 30.23S NEWBURGH MOSUNNY 75 45 33 W6 30.22 MONTGOMERY PTSUNNY 73 52 47 CALM 30.20S POUGHKEEPSIE PTSUNNY 79 37 22 SW5 30.18F ALBANY PTSUNNY 77 41 27 W7 30.17S $$ NJZ001-105-106-008-010-013-015-019>022-104-250000- NEW JERSEY CITY SKY/WX TMP DP RH WIND PRES REMARKS NEWARK/LIBERTY PTSUNNY 81 36 19 SW8 30.22S TETERBORO PTSUNNY 77 46 33 SE10 30.21S CALDWELL PTSUNNY 79 37 22 SW5 30.22S MORRISTOWN MOSUNNY 79 39 24 SW10 30.22S SOMERVILLE MOSUNNY 78 39 24 VRB5 30.21R SUSSEX PTSUNNY 78 42 27 SW6 30.23S ANDOVER N/A 77 41 27 SW7 30.23R TRENTON SUNNY 78 44 29 SW7 30.24S MILLVILLE SUNNY 70 55 59 VRB6 30.28R ATLANTIC CITY SUNNY 67 48 50 S12 30.29R WRIGHTSTOWN SUNNY 76 52 44 S10 30.23R TOMS RIVER SUNNY N/A N/A N/A S13 30.27R BELMAR MOSUNNY 73 52 46 S8 30.25S $$ PAZ047>061-062-071-250000- EASTERN PENNSYLVANIA CITY SKY/WX TMP DP RH WIND PRES REMARKS PHILADELPHIA MOSUNNY 79 40 24 SW7 30.25S ALLENTOWN SUNNY 79 40 24 SW9 30.23R SCRANTON PTSUNNY 77 40 26 SW8 30.22S $$ CTZ002-004>006-009-010-012-RIZ004-006-007-MAZ004-011-015-250000- SOUTHERN NEW ENGLAND IN CT CITY SKY/WX TMP DP RH WIND PRES REMARKS BRADLEY INTL CLOUDY 78 37 22 SW9 30.18S HARTFORD PTSUNNY 72 49 44 S12G20 30.20S DANBURY PTSUNNY 71 46 40 S12 30.24S WTRBRY/OXFORD CLOUDY 70 48 46 S9G18 30.25R BRIDGEPORT PTSUNNY 66 52 60 SW7 30.24S MERIDEN PTSUNNY 71 49 45 S9G20 30.23R NEW HAVEN PTSUNNY 64 51 62 SW5 30.25R CHESTER FAIR 66 48 52 SW9G16 30.26S GROTON PTSUNNY 61 50 67 S7 30.25R WILLIMANTIC MOSUNNY 72 47 40 SW10G20 30.21S IN RI CITY SKY/WX TMP DP RH WIND PRES REMARKS PROVIDENCE PTSUNNY 71 48 43 SW13G22 30.21S BLOCK ISLAND PTSUNNY 55 46 71 SW18 30.26F WESTERLY PTSUNNY 64 49 57 SW7 30.26S IN MA CITY SKY/WX TMP DP RH WIND PRES REMARKS BOSTON CLOUDY 78 38 23 SW23 30.14S WORCESTER MOSUNNY 74 37 26 SW10 30.20R WESTFIELD PTSUNNY 78 37 22 SW7 30.18S PROVINCETOWN PTCLDY 61 48 63 SW20G25 30.19R NANTUCKET PTCLDY 58 47 66 SW16 30.26S $$ ANZ330-335-338-340-345-350-353-355-250000- COASTAL MARINE OBSERVATIONS STATION/POSITION TIME SKY/WX TEMP WIND PRES VSBY WAVE AIR SEA DIR/SP/G HT/PER (UTC) (F) (DEG/KT/KT) (MB) (MI) (FT/S) NY HARB ENTRANCE 2250 61 56 200/ 19/ 23 1023.9 4/ 5 4S FIRE IS 2203 54 N/A 3/ 4 20S FIRE ISLAND 2250 59 55 210/ 16/ 17 1025.1 3/ 5 GREAT SOUTH BAY 2215 61 63 220/ 17/ 21 N/A 23SW MTP 2250 57 53 220/ 16/ 17 1024.9 3/ 5 HUDSON CANYON NOT AVBL KINGS POINT 2200 67 57 190/ 15/ 18 1023.2 CENTRAL LI SOUND 2200 62 53 210/ 16/ 19 N/A EASTERN LI SOUND 2200 60 220/ 16/ 19 N/A ROBBINS REEF 2200 65 170/ 12/ 13 1022.5 $$ >>>>>>>>>>>>>>>>>>>>>>>>>>>> KEY <<<<<<<<<<<<<<<<<<<<<<<<<<< > < > SKY/WX - SKY CONDITION/PRESENT WEATHER < > TMP - TEMPERATURE IN FAHRENHEIT < > DP - DEWPOINT IN FAHRENHEIT < > RH - RELATIVE HUMIDITY IN PERCENT < > WIND - DIRECTION AND SPEED IN MPH < > PRES - MEAN SEA LEVEL PRESSURE IN INCHES OF HG < > WCI - WIND CHILL INDEX < > VSB - VISIBILITY IN MILES < > HX - HEAT INDEX < > TC - TEMPERATURE IN CELSIUS < > VRB - VARIABLE WIND DIRECTION < > < >>>>>>>>>>>>>>>>>>>>>>>>>>>> KEY <<<<<<<<<<<<<<<<<<<<<<<<<<<

USA.gov is the U.S. government's official web portal to all federal, state and local government web resources and services.